www.pogodaiklimat.ru

Погода и климат >> Архив погоды >> Россия >> Курская область >> Тим


ПОГОДА в Тиме

  • Прогноз погоды в Тиме
  • Монитор погоды в Тиме

АРХИВ ПОГОДЫ в Тиме

Время (UTC), дата Ветер
(напр.,м/с)
 
Видим.   Явления Облачность Т
(С)
Тd
(С)
f
(%)
Тe
(С)
Тes
(С)
Комфортность P
(гПа)
Po
(гПа)
Тmin
(С)
Tmax
(С)
R
(мм)
R24
(мм)
S
(см)
00 18.08 З 1 2000 м дымка 10/10 200 м
[St]
+15.1 +15.0 99 +16 +16 1009.4 978.6
03 18.08 З 2 1000 м дымка {туман} 10/10 200 м
[St]
+14.6 +14.5 99 +14 +14 1010.1 979.2 +14.4 3
06 18.08 З 1 4000 м дымка {туман} 10/10 300 м
[St]
+15.0 +14.9 99 +15 +15 1011.0 980.1 +14.2 0.1
09 18.08 ЮЗ 2 10 км 10/10 600 м
[St]
+16.9 +14.8 87 +17 +17 1011.7 981.0
12 18.08 З 2 10 км 10/5 600 м
[St Ac As]
+19.4 +15.1 76 +22 +22 комфорт 1013.2 982.7
15 18.08 З 2 10 км 10/6 600 м
[St Ac As]
+19.5 +13.8 70 +22 +22 комфорт 1013.5 983.0 0.0
18 18.08 СЗ 1 4000 м дымка 10/10 600 м
[Sc]
+15.9 +14.4 91 +17 +17 1015.2 984.3 +20.0
21 18.08 Ю 1 2000 м дымка 3/0
[Ci fib]
+12.9 +12.8 99 +13 +13 1016.9 985.5
00 19.08 СЗ 1 2000 м дымка 3/0
[Ci fib]
+13.6 +13.6 100 +14 +14 1016.6 985.4
03 19.08 штиль 0 2000 м дымка 6/5 600 м
[Sc Ac trans]
+12.7 +12.7 100 +12 +12 1018.7 987.3 +12.5
06 19.08 СЗ 3 10 км ясно +17.5 +14.2 81 +18 +23 1020.2 989.3 +12.5
09 19.08 С 2 10 км 6/6 1000 м
[Cu med, cong]
+21.3 +15.1 68 +24 +30 комфорт 1019.1 988.6
12 19.08 С 2 10 км 6/6 1000 м
[Cu hum]
+23.9 +14.6 56 +27 +30 жарко 1019.5 989.3
15 19.08 СВ 1 10 км ясно +24.4 +13.7 51 +27 +28 жарко 1019.1 988.9
18 19.08 штиль 0 10 км ясно +18.8 +14.7 77 +20 +20 1020.8 990.0 +24.7
21 19.08 СЗ 1 10 км ясно +18.1 +13.7 75 +19 +19 1021.4 990.5
00 20.08 С 1 10 км ясно +16.4 +13.9 85 +17 +17 1023.1 992.0
03 20.08 СВ 2 10 км ясно +16.4 +13.8 85 +17 +17 1022.5 991.4 +15.5
06 20.08 С 1 10 км ясно +21.8 +15.7 68 +25 +32 комфорт 1022.9 992.4 +15.5
09 20.08 СЗ 2 10 км ясно +25.2 +13.3 48 +27 +40 жарко 1022.7 992.5
12 20.08 С 2 10 км ясно +26.9 +11.8 39 +28 +37 жарко 1023.4 993.3
15 20.08 СВ 1 10 км ясно +27.2 +11.1 37 +28 +30 жарко 1021.8 991.8
18 20.08 С 1 10 км ясно +22.4 +12.2 52 +25 +25 комфорт 1023.3 992.8 +27.7
21 20.08 СВ 1 10 км ясно +19.6 +12.6 64 +22 +22 комфорт 1023.9 993.1
00 21.08 СВ 1 10 км ясно +17.5 +12.8 74 +19 +19 1025.8 994.7
03 21.08 СВ 2 10 км 3/0
[Ci fib]
+16.2 +13.2 82 +16 +16 1024.8 993.6 +16.2
06 21.08 В 1 10 км ясно +22.9 +14.0 57 +26 +33 жарко 1024.7 994.2 +16.2
09 21.08 СВ 3 10 км ясно +26.5 +14.2 47 +29 +39 жарко 1023.4 993.3
12 21.08 В 3 10 км ясно +27.9 +14.5 44 +30 +38 жарко 1023.2 993.3
15 21.08 СВ 3 10 км ясно +27.8 +13.6 42 +30 +31 жарко 1020.9 991.0
18 21.08 В 1 10 км ясно +22.6 +14.2 59 +26 +26 жарко 1021.5 991.1 +28.5
21 21.08 В 1 10 км ясно +20.6 +13.4 63 +24 +24 комфорт 1021.6 991.0
00 22.08 В 1 10 км ясно +18.3 +14.2 77 +20 +20 1022.9 992.0
03 22.08 В 1 10 км ясно +18.0 +14.1 78 +19 +19 1021.6 990.7 +17.4
06 22.08 В 1 10 км 1/0
[Ci fib]
+24.2 +15.5 58 +27 +34 жарко 1021.2 991.0 +17.4
09 22.08 В 1 10 км 8/1 1000 м
[Cu hum Ci sp]
+26.7 +14.9 48 +29 +40 жарко 1020.6 990.6
12 22.08 С 2 10 км 8/3 1000 м
[Cu hum Ci sp]
+28.8 +15.0 43 +31 +34 жарко 1020.5 990.7
15 22.08 С 1 10 км 9/0
[Ci sp]
+26.9 +14.6 47 +29 +31 жарко 1020.1 990.1
18 22.08 СВ 1 10 км 9/0
[Ci fib]
+23.3 +15.5 62 +28 +28 душно 1020.9 990.6 +28.9
21 22.08 СВ 4 10 км ясно +19.4 +17.4 88 +21 +21 комфорт 1022.6 991.8
00 23.08 СВ 3 4000 м дымка ясно +16.8 +15.7 93 +17 +17 1024.4 993.3
03 23.08 СВ 4 4000 м дымка 9/0
[Ci fib]
+15.3 +13.8 91 +14 +14 1024.5 993.2 +15.3
06 23.08 В 3 10 км 9/0
[Ci fib]
+18.6 +13.9 74 +19 +23 1024.8 993.9 +15.2
09 23.08 СВ 4 10 км 9/0
[Ac trans Ci fib]
+23.0 +15.5 63 +27 +33 душно 1024.4 994.0
12 23.08 СВ 5-10
{10}
10 км 8/0
[Ci fib]
+23.7 +15.4 60 +27 +31 жарко 1024.1 993.8
15 23.08 СВ 3
{10}
10 км 6/0
[Ci fib]
+23.1 +14.4 58 +27 +28 душно 1024.1 993.7
18 23.08 СВ 2 10 км 8/0
[Cc]
+19.5 +12.9 66 +22 +22 комфорт 1025.0 994.2 +24.1
21 23.08 СВ 1 10 км ясно +16.8 +11.6 71 +18 +18 1025.1 993.9
00 24.08 СВ 3 10 км 7 баллов +15.4 +11.0 75 +15 +15 1026.0 994.7
03 24.08 СВ 2 10 км ясно +13.0 +10.4 84 +12 +12 1026.1 994.5 +12.9
06 24.08 В 2 10 км ясно +19.3 +11.1 59 +21 +27 комфорт 1025.5 994.6 +12.9
09 24.08 В 2 10 км ясно +24.1 +10.8 43 +25 +38 комфорт 1024.5 994.1
12 24.08 С 2 10 км ясно +25.5 +9.3 36 +26 +35 жарко 1025.0 994.7
18 24.08 СВ 1 10 км ясно +19.2 +10.0 55 +21 +21 комфорт 1023.8 992.9 +26.0
21 24.08 С 2 10 км ясно +17.3 +6.9 50 +18 +18 1024.0 992.9

 

Местоположение метеостанции Тим (Курская область, Россия): широта 51.62 долгота 37.13 высота над уровнем моря 264 м.

В архиве по умолчанию представлена погода в Тиме за последнюю неделю. Архивные данные за месяц целиком и за предыдущие месяцы, начиная с января 2011 года, Вы можете получить, выбрав интересующий диапазон дат из раскрывающегося списка и нажав кнопку "Ввод!".


*Определитесь, кто Вы:
робот инопланетянин человек

Внимание! Время в таблицах - всемирное. Для получения местного времени необходимо прибавить поправку, которая равна 3 ч.

Смотрите также архив погоды в соседних городах и на ближайших метеорологических станциях:

Погода в Богородицком (Белгородская область, Россия) (52 км)
Погода в Старом Осколе (Белгородская область, Россия) (63 км)
Погода в Курске (Курская область, Россия) (68 км)
Погода в Обояни (Курская область, Россия) (73 км)
Погода в Нижнедевицке (Воронежская область, Россия) (87 км)
Погода в Ливнах (Орловская область, Россия) (96 км)
Погода в Понырях (Курская область, Россия) (96 км)
Погода в Курчатове (Курская область, Россия) (100 км)
Погода в Фатеже (Курская область, Россия) (101 км)
Погода в Новом Осколе (Белгородская область, Россия) (110 км)

Пояснения к столбцам:

Ветер - указаны скорость ветра в м/с - средняя за 10 мин, порывы в срок и между сроками (в фигурных скобках) и направление, откуда дует ветер: С - северный, СВ - северо-восточный, В - восточный, ЮВ - юго-восточный, Ю - южный, ЮЗ - юго-западный, З - западный, СЗ - северо-западный.
Видимость - горизонтальная дальность видимости в метрах или километрах. При видимости от 1 до 10 км при отсутствии осадков обычно наблюдается дымка, при ухудшении видимости до 1 км и менее - туман. В сухую погоду видимость может ухудшаться дымом, пылью или мглою.
Явления - указаны атмосферные явления, наблюдавшиеся в срок или в последний час перед сроком; фигурными скобками обозначены явления, наблюдавшиеся между сроками (за 1-3 часа до срока); квадратными скобками обозначены град или гололедные отложения с указанием их диаметра в мм.
Облачность - указаны через наклонную черту общая и нижняя облачность в баллах и высота нижней границы облаков в метрах; квадратными скобками обозначены формы облаков: Ci - перистые, Cs - перисто-слоистые, Cc - перисто-кучевые, Ac - высококучевые, As - высокослоистые, Sc - слоисто-кучевые, Ns - слоисто-дождевые, Cu - кучевые, Cb - кучево-дождевые. Подробнее классификацию облаков см. в Атласе облаков (PDF).
T - Температура воздуха - температура, измеренная на высоте 2 м над землей.
Td - Температура точки росы - температура, при понижении до которой содержащийся в воздухе водяной пар достигнет насыщения.
f - Относительная влажность воздуха - влажноcть воздуха, измеренная на высоте 2 м над землей.
Te - Эффективная температура - температура, которую ощущает одетый по сезону человек в тени. Характеристика душности погоды. При расчете учитывается влияние влажности воздуха и скорости ветра на теплоощущения человека.
Tes - Эффективная температура на солнце - температура, которую ощущает человек, с поправкой на солнечный нагрев. Характеристика знойности погоды. Зависит от высоты солнца над горизонтом, облачности и скорости ветра. Ночью, в пасмурную погоду, а также при ветре 12 м/с и более поправка равна нулю.
P - Атмосферное давление - приведенное к уровню моря атмосферное давление.
Po - Атмосферное давление - измеренное на уровне метеостанции атмосферное давление.
Tmin - Минимальная температура - минимум температуры воздуха на высоте 2 м над землей.
Tmax - Максимальная температура - максимум температуры воздуха на высоте 2 м над землей.
R - Количество осадков - Количество выпавших осадков за период времени, мм. При наведении курсора мыши на число - период времени, за который выпало указанное количество осадков.
R24 - Количество осадков - Количество выпавших осадков за 24 часа, мм.
S - Снежный покров - Высота снежного покрова, см. При наведении курсора мыши на число - состояние снежного покрова и степень покрытия местности в баллах.